This demonstration page uses our WeatherBlox Daily Observations layout. Learn more.

Left ArrowRight Arrow

Hourly Observations for November 29, 2022

Temp ( °F °C ) Dew Point ( °F °C ) Humidity (%) Winds ( mph kmh ) Pressure ( in mb ) Visibility ( mi km ) Precip ( " mm )
12:56 am 00:56 Cloudy 36 2.2 22 -5.6 56 56 NNE 32 52 29.55 1001 10 16 0.00 0.00
1:03 am 01:03 Cloudy 36 2 21 -6 55 55 NNE 31 50 29.61 1003 10 16 0.00 0.00
1:56 am 01:56 Cloudy 34 1.1 20 -6.7 56 56 NNE 28 44 29.56 1001 10 16 0.00 0.00
2:56 am 02:56 Cloudy 32 0 21 -6.1 63 63 NNE 32 52 29.56 1001 10 16 0.00 0.00
3:46 am 03:46 Cloudy 30 -1 25 -4 80 80 NNE 30 48 29.65 1004 10 16 0.00 0.00
3:56 am 03:56 Cloudy 31 -0.6 24 -4.4 75 75 NNE 29 46 29.57 1001 10 16 0.00 0.00
4:36 am 04:36 Cloudy 28 -2 25 -4 86 86 NNE 31 50 29.67 1005 10 16 0.00 0.00
4:56 am 04:56 Cloudy 28 -2.2 25 -3.9 88 88 NNE 30 48 29.60 1002 9 14 0.00 0.00
5:56 am 05:56 Windy with Snow Likely 28 -2.2 25 -3.9 88 88 N 25 41 29.65 1004 5 8 0.01 0.13
6:47 am 06:47 Windy with Snow Likely 27 -3 25 -4 93 93 N 30 48 29.76 1008 9 14 0.01 0.13
6:56 am 06:56 Windy with Snow Likely 26 -3.3 23 -5 88 88 N 31 50 29.71 1006 9 14 0.01 0.13
7:48 am 07:48 Windy with Snow Likely 25 -4 21 -6 86 86 N 22 35 29.81 1010 3 5 0.01 0.13
7:56 am 07:56 Windy with Snow Likely 24 -4.4 22 -5.6 91 91 N 29 46 29.74 1007 3 5 0.01 0.13
8:06 am 08:06 Windy with Snow Likely 25 -4 21 -6 86 86 N 28 44 29.82 1010 4 6 0.01 0.13
8:56 am 08:56 Windy with Snow Likely 23 -5 20 -6.7 88 88 N 26 43 29.77 1008 9 14 0.01 0.13
9:30 am 09:30 Windy with Snow Likely 21 -6 19 -7 93 93 N 24 39 29.88 1012 4 6 0.01 0.13
9:42 am 09:42 Windy with Snow Likely 21 -6 18 -8 86 86 N 25 41 29.89 1012 4 6 0.01 0.13
9:49 am 09:49 Windy with Snow Likely 21 -6 18 -8 86 86 N 25 41 29.89 1012 3 4 0.01 0.13
9:56 am 09:56 Windy with Snow Likely 21 -6.1 18 -7.8 88 88 N 26 43 29.80 1009 2 3 0.01 0.13
10:04 am 10:04 Windy with Snow Likely 21 -6 18 -8 86 86 N 28 44 29.90 1013 2 3 0.01 0.13
10:11 am 10:11 Windy with Snow Likely 21 -6 18 -8 86 86 N 21 33 29.90 1013 3 4 0.01 0.13
10:23 am 10:23 Windy with Snow Likely 21 -6 18 -8 86 86 N 28 44 29.90 1013 2 3 0.01 0.13
10:56 am 10:56 Cloudy with Light Snow 22 -5.6 19 -7.2 88 88 N 18 30 29.84 1010 2 3 0.01 0.13
11:05 am 11:05 Windy with Snow Likely 21 -6 19 -7 93 93 N 22 35 29.93 1014 2 3 0.01 0.13
11:18 am 11:18 Windy with Snow Likely 21 -6 19 -7 93 93 NNW 23 37 29.94 1014 1 2 0.01 0.13
11:45 am 11:45 Windy with Snow Likely 23 -5 19 -7 86 86 NNW 22 35 29.95 1014 3 5 0.01 0.13
11:54 am 11:54 Windy with Snow Likely 24 -4.4 19 -7.2 81 81 NNW 26 43 29.85 1011 3 4 0.01 0.13
12:05 pm 12:05 Mostly Cloudy with Light Snow 25 -4 18 -8 74 74 NNW 20 31 29.94 1014 7 11 0.01 0.13
12:15 pm 12:15 Mostly Cloudy with Light Snow 23 -5 18 -8 79 79 NNW 25 41 29.93 1014 9 14 0.01 0.13
12:56 pm 12:56 Cloudy 24 -4.4 15 -9.4 68 68 NNW 23 37 29.88 1012 10 16 0.01 0.13
1:56 pm 13:56 Partly Cloudy 25 -3.9 16 -8.9 68 68 NNW 23 37 29.90 1013 10 16 0.00 0.00
2:56 pm 14:56 Sunny 27 -2.8 15 -9.4 60 60 NW 18 30 29.94 1014 10 16 0.00 0.00
3:56 pm 15:56 Sunny 25 -3.9 12 -11.1 57 57 NNW 14 22 29.98 1015 10 16 0.00 0.00
4:56 pm 16:56 Mostly Cloudy 23 -5 11 -11.7 59 59 NNW 15 24 30.03 1017 10 16 0.00 0.00
5:56 pm 17:56 Mostly Clear 21 -6.1 11 -11.7 64 64 NW 9 15 30.07 1018 10 16 0.00 0.00
6:56 pm 18:56 Partly Cloudy 21 -6.1 11 -11.7 64 64 WNW 15 24 30.11 1020 10 16 0.00 0.00
7:56 pm 19:56 Clear 17 -8.3 9 -12.8 70 70 WNW 12 19 30.15 1021 10 16 0.00 0.00
8:56 pm 20:56 Clear 17 -8.3 9 -12.8 70 70 WNW 13 20 30.18 1022 10 16 0.00 0.00
9:56 pm 21:56 Clear 18 -7.8 10 -12.2 71 71 WNW 13 20 30.21 1023 10 16 0.00 0.00
10:56 pm 22:56 Clear 16 -8.9 8 -13.3 70 70 WNW 13 20 30.23 1024 10 16 0.00 0.00
11:56 pm 23:56 Clear 13 -10.6 6 -14.4 73 73 WNW 10 17 30.25 1025 10 16 0.00 0.00

Powered by AerisWeather